This is the latest recevied weather packets stored in our database for station/object VA7NIC-10. If no packets are shown the sender has not sent any weather packets the latest 10 day(s).
| Time | Temp. | Humidity | Pressure | Rain* | Wind** | Luminosity | Snow |
|---|---|---|---|---|---|---|---|
| 1777772221 | 25.56° C | 30% | 1013.1 hPa | 0 mm | - | - | - |
| 1777771321 | 25.56° C | 29% | 1013.2 hPa | 0 mm | - | - | - |
| 1777770421 | 25.56° C | 29% | 1013.3 hPa | 0 mm | - | - | - |
| 1777769521 | 25.56° C | 29% | 1013.4 hPa | 0 mm | - | - | - |
| 1777768621 | 25.56° C | 29% | 1013.4 hPa | 0 mm | - | - | - |
| 1777767722 | 25.56° C | 30% | 1013.5 hPa | 0 mm | - | - | - |
| 1777766822 | 25.56° C | 30% | 1013.6 hPa | 0 mm | - | - | - |
| 1777765922 | 25.56° C | 31% | 1014 hPa | 0 mm | - | - | - |
| 1777765022 | 25.56° C | 31% | 1013.9 hPa | 0 mm | - | - | - |
| 1777764122 | 25.56° C | 31% | 1014.2 hPa | 0 mm | - | - | - |
| 1777763222 | 25.56° C | 32% | 1014.5 hPa | 0 mm | - | - | - |
| 1777762322 | 25.56° C | 31% | 1014.6 hPa | 0 mm | - | - | - |
| 1777761421 | 25.56° C | 30% | 1014.8 hPa | 0 mm | - | - | - |
| 1777760521 | 25.56° C | 30% | 1014.9 hPa | 0 mm | - | - | - |
| 1777759621 | 25.56° C | 29% | 1014.9 hPa | 0 mm | - | - | - |
| 1777758721 | 25° C | 29% | 1015.1 hPa | 0 mm | - | - | - |
| 1777757821 | 25° C | 32% | 1015.1 hPa | 0 mm | - | - | - |
| 1777756921 | 25.56° C | 33% | 1015.2 hPa | 0 mm | - | - | - |
| 1777756021 | 25° C | 34% | 1015.3 hPa | 0 mm | - | - | - |
| 1777755121 | 25.56° C | 35% | 1015.4 hPa | 0 mm | - | - | - |
| 1777754222 | 25° C | 39% | 1015.7 hPa | 0 mm | - | - | - |
| 1777753322 | 25° C | 40% | 1015.8 hPa | 0 mm | - | - | - |
| 1777752422 | 24.44° C | 44% | 1016.1 hPa | 0 mm | - | - | - |
| 1777751522 | 24.44° C | 44% | 1016.2 hPa | 0 mm | - | - | - |
| 1777750622 | 23.89° C | 46% | 1016.4 hPa | 0 mm | - | - | - |
* Rain latest hour (hover to see other rain measurements)
** Current wind speed in m/s (hover to see current wind gust speed)